TimeEST,TemperatureF,Dew PointF,Humidity,Sea Level PressureIn,VisibilityMPH,Wind Direction,Wind SpeedMPH,Gust SpeedMPH,PrecipitationIn,Events,Conditions,WindDirDegrees,DateUTC
12:54 AM,28.0,25.0,88,30.45,-9999.0,Calm,Calm,-,N/A,,Unknown,0,2012-12-13 05:54:00
1:54 AM,28.0,25.0,88,30.44,-9999.0,Calm,Calm,-,N/A,,Unknown,0,2012-12-13 06:54:00
2:54 AM,27.0,24.1,89,30.46,-9999.0,Calm,Calm,-,N/A,,Unknown,0,2012-12-13 07:54:00
3:54 AM,27.0,24.1,89,30.45,-9999.0,Calm,Calm,-,N/A,,Unknown,0,2012-12-13 08:54:00
4:54 AM,26.1,23.0,88,30.46,-9999.0,Calm,Calm,-,N/A,,Unknown,0,2012-12-13 09:54:00
5:54 AM,25.0,23.0,92,30.45,-9999.0,Calm,Calm,-,N/A,,Unknown,0,2012-12-13 10:54:00
6:54 AM,25.0,21.9,88,30.49,-9999.0,Calm,Calm,-,N/A,,Unknown,0,2012-12-13 11:54:00
7:54 AM,24.1,21.9,91,30.50,-9999.0,Calm,Calm,-,N/A,,Unknown,0,2012-12-13 12:54:00
8:54 AM,28.9,27.0,92,30.49,-9999.0,Calm,Calm,-,N/A,,Unknown,0,2012-12-13 13:54:00
9:54 AM,34.0,27.0,75,30.49,-9999.0,Calm,Calm,-,N/A,,Unknown,0,2012-12-13 14:54:00
10:54 AM,39.0,26.1,60,30.48,-9999.0,Calm,Calm,-,N/A,,Unknown,0,2012-12-13 15:54:00
11:54 AM,42.1,24.1,49,30.46,-9999.0,Calm,Calm,-,N/A,,Unknown,0,2012-12-13 16:54:00
12:54 PM,43.0,24.1,47,30.43,-9999.0,Calm,Calm,-,N/A,,Unknown,0,2012-12-13 17:54:00
1:54 PM,44.1,23.0,43,30.41,-9999.0,Calm,Calm,-,N/A,,Unknown,0,2012-12-13 18:54:00
2:54 PM,44.1,21.0,40,30.40,-9999.0,Variable,3.5,-,N/A,,Unknown,0,2012-12-13 19:54:00
3:54 PM,42.1,21.0,43,30.40,-9999.0,Calm,Calm,-,N/A,,Unknown,0,2012-12-13 20:54:00
4:54 PM,34.0,24.1,67,30.40,-9999.0,Calm,Calm,-,N/A,,Unknown,0,2012-12-13 21:54:00
7:54 PM,28.9,25.0,85,30.41,-9999.0,Calm,Calm,-,N/A,,Unknown,0,2012-12-14 00:54:00
8:54 PM,28.0,24.1,85,30.38,-9999.0,Calm,Calm,-,N/A,,Unknown,0,2012-12-14 01:54:00
9:54 PM,27.0,24.1,89,30.37,-9999.0,Calm,Calm,-,N/A,,Unknown,0,2012-12-14 02:54:00
10:54 PM,25.0,21.9,88,30.36,-9999.0,Calm,Calm,-,N/A,,Unknown,0,2012-12-14 03:54:00
11:54 PM,26.1,23.0,88,30.34,-9999.0,Calm,Calm,-,N/A,,Unknown,0,2012-12-14 04:54:00